STARLINK-31969, 59889

Orbit data source: Space-Track

STARLINK-31969, 59889 is a payload satellite owned by SpaceX/Seattle (US) in LEO that was launched on Tue, 28 May 2024 UTC via an FALCON 9 launch vehicle from the Air Force Eastern Test Range (AFETR). Payload-class satellites include a variety of spacecraft equipped with specific instruments for various scientific and technological missions. These include communications satellites like Starlink; space stations such as the ISS; scientific satellites like the Hubble; Earth observation satellites from companies like Planet Labs, Umbra, and HawkEye 360; GPS; miniature CubeSats for education and research; and military/defense satellites.

Loading next visibility...
Identifier
59889, 2024-100E
Orbit
LEO
Country
Flag of USUS
Related business
Manufacturer
SpaceX/Seattle
Mission
Operational spacecraft
Bus & Motor
STARLINK V2M, Unknown motor
Mass
730 kg wet, ~700 kg dry
Launch date (UTC)
2024-05-28 (1 year ago)
Launch vehicle
FALCON 9
Launch site
Air Force Eastern Test Range (AFETR)
Object type
Payload
Rocket body
Debris
Shape & HBR
Unknown
Radar Cross Section
Large (>1 m²)

Expand to show TLE details & history
Last TLE update: 23 hours ago

TLE from 23 hours ago
0 STARLINK-31969
1 59889U 24100E   25260.06527180 -.00001162  00000-0 -32697-4 0  9993
2 59889  43.0036  22.4469 0001741 271.5847  88.4806 15.27576868 74641
Epoch: 2025-09-17T01:33Z
TLE epoch observation values (Epoch: 2025-09-17T01:33:59.483Z)
Latitude
0.00003°
Longitude
2.70251°
Altitude
482.803 km
Speed
7.626 km/s
True Right ascension
01h 29m 47s
True Declination
0° 00' 00"
Sunlit
Object was in full shadow at epoch
Visualization orbit readout
Latitude
Unknown
Longitude
Unknown
Altitude
Unknown
Speed
Unknown
Apparent Right ascension
Unknown
Apparent Declination
Unknown
Sunlit
N/A
Visualization observer readout
Local Sidereal Time
17:34:08
Azimuth
Unknown
Elevation
Unknown
Doppler factor
Unknown
Orbital elements
Apogee altitude
486.198 km
Perigee altitude
483.808 km
Semi-major axis
6,863.14 km
Eccentricity
0.00017
Inclination
43.0036°
RAAN
22.4469°
Arg. of periapsis
271.5847°
True anomaly
88.50054°
Mean anomaly
88.4806°
Eccentric anomaly
88.49057°
Mean motion
3.81732 °/min
Orbital period
94.31 mins
BSTAR
-0.000032697
Loading maneuver chart data...
Computing Atmospheric mass density...
Loading historical data...
Loading historical data...
Loading historical data...
Loading historical data...
Loading historical data...
Loading historical data...
Loading historical data...

Documentation

Showing up to 5 results
|